Location: Unspecified
(0.0000°N, 0.0000°E)
Time: 03:14:37
(UTC+00:00)

Envisat - Pass Details

Date: 24 February 2021
Orbit: 764 x 766 km, 98.1° (Epoch: 24 February)

Event Time Altitude Azimuth Distance (km) Brightness Sun altitude
Rises 04:32:07 0° 35° (NE) 3,215 6.5 -24.9°
Reaches altitude 10° 04:34:47 10° 48° (NE) 2,292 5.9 -24.3°
Maximum altitude 04:38:52 25° 102° (ESE) 1,502 5.3 -23.3°
Drops below altitude 10° 04:42:59 10° 157° (SSE) 2,301 5.9 -22.2°
Sets 04:45:39 0° 169° (S) 3,230 6.5 -21.6°
